Temp
19 19 18 18 18 17 16 15 15 15 15 15 14 14 14 14 15 15 15 15 16 18
20 20 19 18 18 17 17 16 15 15 15 14 14 14 13 13 13 14 14 15 15 17
19 19 19 20 19 18 17 17 15 15 14 14 14 14 13 13 13 13 14 14 15 15
16 17 18 19 19 19 19 16 15 15 14 14 14 14 13 13 13 13 13 13 13 14
16 16 16 16 18 18 18 18 16 15 14 14 14 14 13 13 12 12 12 12 12 12
15 15 15 14 14 15 17 18 17 15 14 14 14 13 13 13 12 12 11 11 11 11
14 14 13 13 12 13 14 15 17 16 15 14 14 13 13 13 12 12 11 11 11 10
14 13 13 11 10 12 12 13 14 16 15 14 14 13 13 13 12 12 11 11 10 10
13 14 13 11 9 9 11 12 12 13 14 14 14 13 13 13 12 12 11 11 10 10
13 13 13 11 10 9 9 11 11 11 12 13 13 13 13 13 12 11 11 11 10 9
12 12 12 11 10 9 8 8 9 10 10 11 11 12 12 12 12 11 10 10 9 8
12 11 11 10 9 9 7 7 7 8 8 9 10 10 10 11 10 9 9 9 9 8
12 11 9 7 7 6 5 5 5 6 7 7 7 8 8 9 8 6 6 6 7 7
11 9 7 6 5 5 4 4 3 4 4 5 6 5 6 7 6 5 4 4 4 4
Height
666 671 674 678 682 686 692 697 702 708 714 719 726 733 739 745 749 754 757 762 765 769
661 663 667 670 672 677 683 687 692 697 704 710 716 722 728 733 739 744 748 752 757 761
656 659 661 664 666 667 671 678 682 688 694 700 705 710 717 722 728 733 738 743 748 751
658 657 657 657 659 661 663 665 672 677 683 689 695 701 706 711 716 721 727 731 736 740
657 657 656 655 653 655 656 660 661 667 673 679 685 690 694 700 704 710 714 719 724 727
657 656 655 654 651 650 650 652 655 656 662 667 673 679 683 687 693 697 702 706 711 717
653 654 654 652 650 647 646 646 647 647 651 656 662 666 671 676 682 687 690 695 699 705
651 650 650 651 647 644 642 642 642 641 642 647 651 654 659 665 670 676 681 685 688 693
650 646 646 647 644 639 638 638 639 638 636 637 640 644 649 654 658 664 669 673 677 683
644 642 642 643 643 636 633 634 636 635 637 635 634 637 641 646 650 655 659 665 671 675
641 637 634 634 637 632 628 631 632 633 634 631 635 634 638 640 645 646 649 656 663 668
640 638 634 635 633 634 633 627 627 629 630 631 633 633 635 636 640 642 643 647 657 663
631 634 634 631 627 632 633 631 625 627 625 627 631 633 634 634 637 643 645 645 651 656
628 627 628 624 620 626 629 626 627 630 624 623 626 631 636 636 634 638 649 648 649 653
Wind_Speed
30 30 33 33 30 34 31 34 36 43 42 45 45 44 43 42 43 45 44 43 40 36
27 30 30 34 35 31 32 32 41 45 45 43 45 46 42 43 44 43 45 43 43 41
11 20 27 31 33 35 36 37 38 42 46 46 47 48 47 42 42 43 41 42 41 42
10 14 16 23 32 34 33 36 36 42 44 45 43 45 44 44 44 43 43 40 41 40
10 12 15 16 19 28 33 33 36 41 42 44 45 45 46 44 40 43 43 44 42 42
11 12 13 18 18 16 19 33 33 37 42 42 44 44 47 48 46 45 46 46 45 44
13 13 13 15 16 19 22 18 32 35 41 43 44 46 46 47 45 45 46 46 46 45
15 12 14 15 17 19 18 20 17 29 35 40 42 45 45 44 44 43 42 42 42 44
19 12 12 15 16 13 16 17 20 22 23 36 39 43 48 46 42 42 42 39 40 42
20 16 14 14 14 12 13 15 18 18 22 25 30 36 44 50 38 35 34 32 31 31
20 19 19 18 18 14 10 14 15 18 21 20 27 30 31 35 41 32 32 35 34 33
18 20 15 18 16 15 12 12 14 14 15 18 22 23 26 25 29 31 29 30 32 33
21 21 14 16 13 15 14 16 12 13 12 11 14 14 16 23 26 22 23 24 27 30
23 20 15 15 15 15 14 11 10 10 9 9 10 12 17 23 25 26 22 24 24 23
Wind_Direction
211 212 211 211 209 206 207 205 202 200 202 202 204 203 203 205 206 207 208 210 211 212
225 218 218 215 213 209 207 203 202 203 202 203 202 204 203 206 208 210 211 214 215 218
278 249 239 230 220 215 211 209 202 201 203 205 205 205 205 207 210 209 214 216 216 216
293 286 279 253 241 232 218 202 203 201 202 204 205 207 208 209 209 209 211 213 217 218
289 283 290 293 273 244 233 219 203 202 202 205 206 206 207 209 209 209 211 214 213 213
299 287 291 298 304 294 258 230 217 202 203 204 206 207 210 211 211 210 213 213 213 216
302 296 290 298 299 295 280 286 221 210 206 207 207 208 210 211 213 214 216 216 216 214
278 285 291 290 288 293 284 278 280 224 210 209 209 211 212 212 214 216 218 220 217 216
288 270 275 284 288 291 290 280 281 264 238 208 212 216 215 212 212 216 218 218 215 217
298 300 289 282 278 282 283 282 277 275 262 236 219 219 220 220 214 217 218 219 217 213
292 290 291 298 285 282 279 272 265 270 267 255 248 232 228 225 221 221 216 215 214 209
282 275 268 272 276 279 272 263 260 256 256 252 249 244 243 231 219 216 210 211 214 211
283 278 262 262 254 256 258 261 243 233 222 237 247 234 221 215 201 191 188 192 197 204
274 271 263 257 250 253 245 227 214 202 181 186 201 205 218 216 194 180 169 167 170 181